Find KUIPER-00412

NORAD ID: 68927 Int'l Des: 2026-098J Owner: KUIP Country: US Constellation: amazon-leo operational
LEOCIRCULAR

Current View

Loading 3D Globe...

About KUIPER-00412

KUIPER-00412 (NORAD 68927) is a amazon-leo constellation satellite launched Apr 30, 2026 by KUIP of US. It operates in LEO, CIRCULAR orbit with a mass of 490.00 kg.

About KUIPER-00412

Description loading...

Upcoming Passes

Passes for default location (London). Set your location on the main map for personalized predictions.

Altitude History

Loading altitude history...

Two-Line Element Set

1 68927U 26098J 26170.39748207 .00018839 00000-0 52223-3 0 9999
2 68927 51.8792 56.5912 0002127 205.6131 154.4751 15.36973145 7697
Epoch: Jun 19, 2026 • Age: 19 hours

Current Status

Altitude 460.6 km
Velocity 7.64 km/s
Sub-Earth Point 44.40°N, 126.16°E
Launch Date Apr 30, 2026
Age 0.1 years
Type internet

Technical Details

Classification Payload
Mass 490.00 kg
Dry Mass 490.00 kg
Total Mass 490.00 kg
Length 1.80 m
Diameter 0.70 m
Span 5.00 m
Shape Box + 2 pan
Manufacturer KUIP
Bus Type Kuiper
Phase Status In Orbit
Owner/State KUIP/US

Most Searched